Location: Newark
(7.0858°N, 171.3717°E)
Time: 12:40:45
(UTC+00:00)

N. Korean satellite - Pass Details

Date: 28 September 2021
Orbit: 450 x 495 km, 97.3° (Epoch: 23 October)

Event Time Altitude Azimuth Distance (km) Brightness Sun altitude
Rises 17:57:41 0° 354° (N) 2,548 10.1 -7.1°
Reaches altitude 10° 17:59:54 10° 343° (NNW) 1,674 9.1 -6.5°
Maximum altitude 18:03:04 29° 282° (WNW) 919 7.4 -5.7°
Drops below altitude 10° 18:06:16 10° 220° (SW) 1,688 8.9 -4.9°
Sets 18:08:32 0° 209° (SSW) 2,572 10.0 -4.4°
